Location: Albuquerque Trailhead
(34.7934°N, 106.3736°W)
Time: 08:09:57
(UTC+00:00)

CAS-4A - Pass Details

Date: 31 March 2023
Orbit: 506 x 523 km, 43.0° (Epoch: 28 May)

Event Time Altitude Azimuth Distance (km) Brightness Sun altitude
Exits shadow 10:49:11 42° 19° (NNE) 750 ? -25.5°
Drops below altitude 10° 10:52:14 10° 55° (NE) 1,751 ? -24.9°
Enters shadow 11:48:30 -71° 250° (WSW) 12,595 ? -14.1°
